Tracking 17143 objects as of 25-May-2015
HD Live streaming from Space Station

COSMOS 778

Track COSMOS 778 now!
10-day predictions
COSMOS 778 is classified as:


NORAD ID: 8419
Int'l Code: 1975-103A
Perigee: 974.8 km
Apogee: 1,006.1 km
Inclination: 83.0 °
Period: 104.8 minutes
Semi major axis: 7361 km
RCS: 2.3884 m2 (large)
Launch date: November 4, 1975
Source: Commonwealth of Independent States (former USSR) (CIS)
Your satellite tracking list
Your tracking list is empty





NASA's NSSDC Master Catalog

Two Line Element Set (TLE):
1 08419U 75103A   15145.15651497  .00000041  00000-0  27224-4 0  9998
2 08419 082.9762 032.3433 0021305 333.2348 134.6875 13.74544845983631

Source of the keplerian elements: AFSPC

N2YO: 327